User: anonymous   Login
Location: Bryzozowice
(50.3667°N, 18.9667°E)
Time: 12:32:02
(UTC+00:00)
Language:

Cosmos 614 Rocket - Orbit

View from above orbital plane
View from above orbital plane
View from above satellite
View from above satellite

Ground track
Ground track

The orbit data is extracted from the following two-line orbital elements,

1  6966U 73098B   20088.84325703 +.00000029 +00000-0 +16429-4 0  9991
2  6966 074.0552 138.0729 0022227 220.4202 139.5304 14.43024434431720
Epoch (UTC): 28 March 2020 20:14:17
Eccentricity: 0.0022227
inclination: 74.0552°
perigee height: 732 km
apogee height: 764 km
right ascension of ascending node: 138.0729°
argument of perigee: 220.4202°
revolutions per day: 14.43024434
mean anomaly at epoch: 139.5304°
orbit number at epoch: 43172

The dashed part of the orbit path shows where the satellite is in the earth's shadow,  

DLR